Weather History for Montreal Mirabel, QC

Change the Weather History Date:

Monday, December 17, 2012

  Actual Average Record
Temperature  
Mean Temperature 24 °F -  
Max Temperature 28 °F 26 °F 44 °F (2006)
Min Temperature 21 °F 12 °F -20 °F (2013)
Degree Days  
Heating Degree Days 40    
Moisture  
Dew Point 22 °F    
Average Humidity 94    
Maximum Humidity 100    
Minimum Humidity 93    
Precipitation  
Precipitation 0.00 in - - ()
Sea Level Pressure  
Sea Level Pressure 29.92 in    
Wind  
Wind Speed 9 mph ()    
Max Wind Speed 13 mph    
Max Gust Speed 23 mph    
Visibility 3.1 miles    
Events Rain , Snow    
Averages and records for this station are not official NWS values.
T = Trace of Precipitation, MM = Missing Value Source: Averaged Metar Reports

Daily Weather History Graph

Daily Weather History Graph

Search for Another Location

Airport:

Trip Planner

Search our weather history database for the weather conditions in past years. The results will help you decide how hot, cold, wet, or windy it might be!

Date:

Astronomy

Dec. 17, 2012 Rise Set
Actual Time 7:31 AM EST 4:13 PM EST
Civil Twilight 6:57 AM EST 4:47 PM EST
Nautical Twilight 6:19 AM EST 5:25 PM EST
Astronomical Twilight 5:43 AM EST 6:01 PM EST
Moon 10:26 AM EST (12/17) 9:46 PM EST (12/17)
Length of Visible Light 9h 50m
Length of Day
8h 41m
Waxing Crescent, 24% of the Moon is Illuminated
Dec 17
Waxing Crescent
Dec 20
First Quarter
Dec 28
Full
Jan 4
Last Quarter
Jan 11
New

Hourly Weather History & Observations

Time (EST) Temp. Windchill Dew Point Humidity Pressure Visibility Wind Dir Wind Speed Gust Speed Precip Events Conditions
12:00 AM 21.2 °F 9.5 °F 19.4 °F 93% 30.00 in 4.0 mi ENE 11.5 mph 20.7 mph N/A   Light Freezing Drizzle
1:00 AM 21.2 °F 10.1 °F 19.4 °F 93% 29.99 in 4.0 mi NE 10.4 mph 18.4 mph N/A   Light Freezing Drizzle
2:00 AM 21.2 °F 8.9 °F 19.4 °F 93% 29.98 in 5.0 mi NE 12.7 mph 23.0 mph N/A Rain Light Freezing Rain
3:00 AM 21.2 °F 9.5 °F 19.4 °F 93% 29.97 in 4.0 mi NE 11.5 mph 21.9 mph N/A Rain Light Freezing Rain
3:12 AM 21.2 °F 9.5 °F 19.4 °F 93% 29.97 in 3.0 mi NE 11.5 mph 23.0 mph N/A Snow Light Snow
4:00 AM 21.2 °F 9.5 °F 19.4 °F 93% 29.96 in 3.0 mi NE 11.5 mph 19.6 mph N/A Snow Light Snow
4:51 AM 21.2 °F 10.9 °F 19.4 °F 93% 29.95 in 2.0 mi NE 9.2 mph 20.7 mph N/A Snow Light Snow
5:00 AM 21.2 °F 10.9 °F 19.4 °F 93% 29.94 in 2.0 mi NE 9.2 mph 17.3 mph N/A Snow Light Snow
6:00 AM 21.2 °F 11.7 °F 19.4 °F 93% 29.95 in 1.5 mi NE 8.1 mph 21.9 mph N/A Snow Light Ice Pellets
7:00 AM 21.2 °F 9.5 °F 19.4 °F 93% 29.95 in 2.5 mi ENE 11.5 mph 19.6 mph N/A Snow Light Ice Pellets
7:48 AM 23.0 °F 11.7 °F 21.2 °F 93% 29.94 in 2.5 mi ENE 11.5 mph 21.9 mph N/A Snow Light Ice Pellets
8:00 AM 23.0 °F 12.4 °F 21.2 °F 93% 29.93 in 2.5 mi ENE 10.4 mph 21.9 mph N/A Snow Light Ice Pellets
8:47 AM 23.0 °F 11.7 °F 23.0 °F 100% 29.92 in 2.5 mi NE 11.5 mph 19.6 mph N/A Snow Light Freezing Drizzle
9:00 AM 24.8 °F 14.0 °F 23.0 °F 93% 29.92 in 2.5 mi NE 11.5 mph 19.6 mph N/A Snow Light Freezing Drizzle
10:00 AM 24.8 °F 15.3 °F 23.0 °F 93% 29.91 in 2.5 mi NE 9.2 mph 19.6 mph N/A Snow Light Freezing Drizzle
10:25 AM 24.8 °F 15.3 °F 23.0 °F 93% 29.92 in 1.0 mi NE 9.2 mph - N/A Snow Light Freezing Drizzle
11:00 AM 24.8 °F 16.1 °F 23.0 °F 93% 29.90 in 1.0 mi ENE 8.1 mph - N/A Snow Light Freezing Drizzle
11:46 AM 24.8 °F 16.9 °F 23.0 °F 93% 29.90 in 0.8 mi NE 6.9 mph - N/A Snow Light Ice Pellets
12:00 PM 24.8 °F 16.9 °F 23.0 °F 93% 29.89 in 0.8 mi ENE 6.9 mph 18.4 mph N/A Snow Light Ice Pellets
1:00 PM 24.8 °F 14.6 °F 23.0 °F 93% 29.89 in 0.8 mi NE 10.4 mph - N/A Snow Light Ice Pellets
2:00 PM 24.8 °F 17.9 °F 23.0 °F 93% 29.88 in 1.0 mi NNE 5.8 mph - N/A Snow Light Ice Pellets
3:00 PM 24.8 °F 17.9 °F 24.8 °F 100% 29.88 in 5.0 mi NE 5.8 mph - N/A Snow Light Freezing Drizzle
4:00 PM 24.8 °F 17.9 °F 24.8 °F 100% 29.88 in 5.0 mi NNE 5.8 mph - N/A Snow Light Freezing Drizzle
8:00 PM 28.4 °F 21.2 °F 26.6 °F 93% 29.88 in 6.0 mi NE 6.9 mph - N/A Snow Light Snow
9:00 PM 28.4 °F 21.2 °F 26.6 °F 93% 29.86 in 5.0 mi NE 6.9 mph - N/A Snow Light Snow
9:31 PM 28.4 °F 19.7 °F 28.4 °F 100% 29.86 in 6.0 mi NE 9.2 mph 18.4 mph N/A   Overcast
10:00 PM 28.4 °F 21.2 °F 28.4 °F 100% 29.86 in 6.0 mi ENE 6.9 mph - N/A   Overcast
11:00 PM 28.4 °F 18.5 °F 26.6 °F 93% 29.84 in 6.0 mi NE 11.5 mph 21.9 mph N/A   Overcast